Home > Weather > Cozumel > Past weeks

Flag for Mexico Past Weather in Cozumel, Quintana Roo, Mexico — Yesterday and Last 2 Weeks

Now
72 °F

Passing clouds.


Feels Like: 65 °F
Forecast: 82 / 90 °F
Wind: No wind

Location: Cozumel Civ / Mil

Current Time: Jul 23, 2016 at 6:18:37 AM

Latest Report: Jul 23, 2016 at 5:47 AM


Visibility: 7 mi

Pressure: 29.95 "Hg

Humidity: 100%

Dew Point: 72 °F

Location of CozumelLocation

Past Weather in Cozumel — Graph

°F

Cozumel Temperature Yesterday

Maximum temperature yesterday: 88 °F (at 2:49 PM)
Minimum temperature yesterday: 72 °F (at 6:48 AM)
Average temperature yesterday: 81 °F

High & Low Weather Summary for the Past Weeks

 TemperatureHumidityPressure
High88 °F (Jul 8, 12:40 PM)100% (Jul 8, 4:41 AM)30.09 "Hg (Jul 8, 4:41 AM)
Low70 °F (Jul 16, 2:40 AM)62% (Jul 8, 12:40 PM)29.93 "Hg (Jul 15, 6:49 PM)
Average79 °F88%30.02 "Hg
* Reported Jul 8 4:41 AM — Jul 23 4:52 AM, Cozumel, Weather by CustomWeather, © 2016

Note: Actual official high and low records may vary slightly from our data, if they occured in-between our weather recording intervals... More about our weather records

Advertising

Cozumel Weather History for the Previous 24 Hours

Scroll right to see more
 ConditionsComfort  
Time TempWeatherWind HumidityBarometerVisibility
4:52 AM
Sat, Jul 23
73 °FPassing clouds.No wind100%29.96 "Hg7 mi
2:40 AM73 °FPassing clouds.No wind100%29.99 "Hg7 mi
1:55 AM73 °FPassing clouds.No wind100%30.01 "Hg7 mi
12:53 AM75 °FPassing clouds.No wind100%30.01 "Hg7 mi
11:41 PM
Fri, Jul 22
75 °FPassing clouds.No wind100%30.03 "Hg7 mi
10:43 PM75 °FPassing clouds.No wind100%30.02 "Hg7 mi
9:43 PM77 °FPassing clouds.3 mph94%30.03 "Hg7 mi
5:59 PM84 °FScattered clouds.8 mph74%29.99 "Hg8 mi
4:48 PM86 °FBroken clouds.10 mph70%29.99 "Hg8 mi
3:43 PM88 °FScattered clouds.12 mph66%30.01 "Hg8 mi
2:49 PM88 °FBroken clouds.9 mph66%30.00 "Hg8 mi
12:48 PM86 °FBroken clouds.10 mph70%30.01 "Hg7 mi
10:41 AM84 °FBroken clouds.9 mph79%30.03 "Hg7 mi
8:45 AM81 °FScattered clouds.No wind89%30.02 "Hg7 mi
7:42 AM75 °FScattered clouds.No wind94%30.01 "Hg7 mi
6:48 AM72 °FLight rain. Partly cloudy.No wind100%29.97 "Hg5 mi
Weather by CustomWeather, © 2016

See weather overviewHow to use our weather pages